Showing default

OPS 2222, 3334

Orbit data source: Space-Track

OPS 2222, 3334 is an American payload satellite in GEO that was launched on Tue, 06 Aug 1968 UTC via an ATLAS SLV-3A AGENA D launch vehicle from the Air Force Eastern Test Range (AFETR). Payload-class satellites include a variety of spacecraft equipped with specific instruments for various scientific and technological missions. These include communications satellites like Starlink; space stations such as the ISS; scientific satellites like the Hubble; Earth observation satellites from companies like Planet Labs, Umbra, and HawkEye 360; GPS; miniature CubeSats for education and research; and military/defense satellites.

Not visible in the next 10 days
Identifier
3334, 1968-063A
Orbit
GEO
Country
Flag of USUS
Related business
Manufacturer
LMSC?
Mission
Non-operational Defense Sigint
Bus & Motor
CANYON, Unknown motor
Mass
~240 kg wet, ~200 kg dry
Launch date (UTC)
1968-08-06 (57 years ago)
Launch vehicle
ATLAS SLV-3A AGENA D
Launch site
Air Force Eastern Test Range (AFETR)
Object type
Payload
Rocket body
Debris
Shape & HBR
Cyl, 0.8 m
Radar Cross Section
2.639 m²

Expand to show TLE details & history
Last TLE update: 1 day ago

TLE from 1 day ago
0 OPS 2222
1 03334U 68063A   25260.89952426 -.00000317  00000-0  00000-0 0  9998
2 03334   6.6199 285.3406 0913950 223.9656 333.3454  0.99257030 23425
Epoch: 2025-09-17T21:35Z
TLE epoch observation values (Epoch: 2025-09-17T21:35:18.896Z)
Latitude
-1.39061°
Longitude
156.42388°
Altitude
32,679.241 km
Speed
3.32 km/s
True Right ascension
07h 49m 17s
True Declination
-1° 23' 21"
Sunlit
Object was in daylight at epoch
Visualization orbit readout
Latitude
Unknown
Longitude
Unknown
Altitude
Unknown
Speed
Unknown
Apparent Right ascension
Unknown
Apparent Declination
Unknown
Sunlit
N/A
Visualization observer readout
Local Sidereal Time
15:05:53
Azimuth
Unknown
Elevation
Unknown
Doppler factor
Unknown
Orbital elements
Apogee altitude
39,954.507 km
Perigee altitude
32,194.581 km
Semi-major axis
42,452.681 km
Eccentricity
0.0914
Inclination
6.6199°
RAAN
285.3406°
Arg. of periapsis
223.9656°
True anomaly
328.12289°
Mean anomaly
333.3454°
Eccentric anomaly
330.78989°
Mean motion
0.24813 °/min
Orbital period
1,450.83 mins
BSTAR
0
Loading maneuver chart data...
Computing Atmospheric mass density...
Loading historical data...
Loading historical data...
Loading historical data...
Loading historical data...
Loading historical data...
Loading historical data...
Loading historical data...
Other satellites on launch #63 in the year 1968 (1968-08-06 UTC)

Documentation

Showing up to 5 results
|